Temperature
24 24 22 22 25 28 29 30 31 30 30 29 29 28 27 26 25 23 22 21 20 20 20 19 19 19 18 18 18 18 18 18 18 18 18 18 18 18 18 18 18 18 18 18 18 18 18 18 18
24 23 23 25 27 29 30 31 30 30 30 29 29 28 27 25 24 23 21 21 20 19 19 19 19 19 19 18 18 18 18 18 18 18 18 18 18 18 18 18 18 18 18 18 18 18 18 18 18
24 24 26 28 30 30 30 31 31 31 30 30 29 27 26 25 23 22 21 21 20 20 20 19 19 19 19 18 18 18 18 18 18 18 18 18 18 18 18 18 18 18 18 18 18 18 18 18 18
24 26 28 30 31 32 32 32 32 31 31 30 29 27 25 24 23 22 22 21 20 20 20 19 19 19 19 18 18 18 18 18 18 18 18 18 18 18 18 18 18 18 18 18 18 18 18 18 18
25 28 30 30 31 33 33 33 32 31 31 29 28 26 25 24 23 22 22 22 21 20 20 20 19 19 19 18 18 18 18 18 18 18 18 18 18 18 18 18 18 18 18 18 18 18 18 18 18
28 30 30 31 32 33 33 33 32 32 31 29 28 26 24 24 23 23 22 22 21 20 20 20 20 19 19 19 18 18 18 18 18 18 18 18 18 18 18 18 18 18 18 18 18 18 18 18 18
30 32 31 32 32 32 33 33 33 32 31 30 28 27 25 24 23 23 22 22 21 21 20 20 20 19 19 19 19 19 18 18 18 18 18 18 18 18 18 18 18 18 18 18 18 18 18 18 18
32 33 32 32 33 33 34 33 32 32 31 30 29 27 25 24 23 23 23 22 21 21 20 20 19 19 19 19 19 19 19 18 18 18 18 18 18 18 18 18 18 18 18 18 18 18 18 18 18
33 32 32 33 33 33 34 33 32 31 31 30 29 27 25 24 24 23 23 22 21 21 21 20 20 19 19 19 19 19 19 18 18 18 18 18 18 18 18 18 18 18 18 18 18 18 18 18 18
35 32 33 35 35 34 34 33 33 32 31 29 28 26 25 24 24 23 23 22 22 21 21 21 20 20 20 19 19 19 18 18 18 18 18 18 18 18 18 18 18 18 18 18 18 18 18 18 18
36 34 35 36 35 35 34 34 33 33 31 30 28 26 25 25 24 24 23 22 22 21 21 21 20 20 20 20 19 19 19 19 18 18 18 18 18 18 18 18 18 18 18 18 18 18 18 18 18
36 36 36 36 35 35 34 34 33 33 31 30 28 27 26 25 25 24 23 23 22 21 21 21 20 20 20 20 19 19 19 19 18 18 18 18 18 18 18 18 18 18 18 18 18 18 18 18 18
36 36 36 35 35 35 34 34 33 32 31 30 28 27 26 26 25 24 24 23 22 21 21 21 20 20 20 20 20 19 19 19 19 19 19 18 18 18 18 18 18 18 18 18 18 18 18 18 18
36 36 36 35 35 35 35 34 33 32 31 30 29 28 27 26 26 25 24 23 22 22 21 21 20 20 20 20 20 20 19 19 19 19 19 19 19 18 18 18 18 18 18 18 18 18 18 18 18
36 35 35 35 36 35 35 32 32 31 31 30 29 28 27 27 26 25 24 23 22 22 21 20 20 20 20 20 20 20 20 20 19 19 19 19 19 18 18 18 18 18 18 18 18 18 18 18 18
36 35 34 34 35 35 34 31 32 32 31 30 30 29 28 27 26 25 24 23 22 22 21 21 20 20 20 20 20 20 20 20 19 19 19 19 19 19 19 18 18 18 18 18 18 18 18 18 18
34 33 33 34 35 36 35 32 33 32 31 30 30 29 28 27 27 25 25 23 22 22 21 21 21 20 20 20 20 20 20 20 19 19 19 19 19 19 19 18 18 18 18 18 18 18 18 18 18
32 33 33 33 35 35 35 34 34 33 32 32 31 29 28 27 27 26 25 24 23 22 21 21 20 20 20 20 20 20 19 19 19 19 19 19 19 19 19 19 19 18 18 18 18 18 18 18 19
34 33 33 34 35 35 34 34 34 34 34 33 31 30 29 28 27 26 25 24 23 22 21 21 20 20 20 20 20 19 19 19 19 19 19 19 19 19 19 19 19 19 18 18 18 18 19 19 19
34 33 33 34 35 35 34 34 35 35 34 33 32 31 29 28 27 26 25 24 23 22 21 21 21 20 20 20 20 20 20 19 19 20 19 19 19 19 19 19 19 19 19 19 19 19 19 19 19
34 34 34 34 35 35 34 33 33 34 34 33 33 31 30 29 28 26 25 25 24 22 22 21 21 21 21 20 20 20 20 20 20 19 19 19 19 19 19 19 19 19 19 19 19 19 19 19 19
33 34 34 34 33 33 33 32 32 33 32 33 33 32 31 29 28 27 26 25 24 23 22 22 21 21 21 20 20 20 20 20 20 20 20 19 19 19 19 19 19 19 19 19 19 19 19 19 19
34 35 34 34 33 32 33 31 32 33 32 32 33 32 31 30 29 27 26 25 25 24 23 22 21 21 21 21 20 20 20 20 20 20 20 19 19 19 19 19 19 19 19 19 19 19 19 19 19
35 34 34 34 33 31 32 31 31 32 32 32 33 33 32 31 29 28 27 26 25 24 23 22 22 21 21 21 20 20 20 20 20 20 20 19 19 19 19 19 19 19 19 19 19 19 19 19 19
34 32 31 31 31 30 32 31 31 32 33 33 33 33 32 31 30 28 27 26 25 24 24 22 22 21 21 21 21 20 20 20 20 20 20 20 19 19 19 19 20 19 19 19 19 19 19 19 19
33 33 30 30 30 31 31 30 31 32 32 32 32 32 31 30 30 29 27 26 25 25 24 23 22 22 21 21 21 21 20 20 20 20 20 20 20 20 20 20 20 19 19 19 19 19 19 19 19
32 33 33 32 31 30 30 30 31 31 31 31 31 31 31 30 29 28 27 26 25 25 24 23 22 22 21 21 21 21 21 20 20 20 20 20 20 20 20 20 19 19 19 19 19 19 18 18 18
34 33 32 31 29 30 30 30 30 29 30 30 30 30 30 29 29 28 27 27 26 25 24 23 23 22 21 21 21 21 21 21 20 20 20 20 20 20 20 19 19 19 19 19 19 19 18 18 18
33 32 31 31 31 30 29 30 31 30 29 29 29 29 29 29 29 28 27 27 26 25 24 23 23 22 21 21 21 20 20 20 20 20 20 20 20 19 19 19 19 19 19 19 19 18 18 18 18
33 32 31 30 29 30 30 30 31 30 30 29 29 28 28 28 28 27 27 26 25 25 24 23 23 22 21 21 21 20 20 20 20 20 20 20 19 19 19 19 19 19 19 19 18 18 18 18 18
Wind_Speed
12 12 10 6 5 0 12 14 15 15 15 14 14 14 17 15 11 9 9 12 14 13 13 14 13 14 14 14 14 14 15 15 16 16 17 17 18 18 18 18 17 18 19 18 18 17 17 16 15
11 13 9 5 2 7 13 14 14 13 12 12 15 17 17 16 14 11 10 11 13 13 13 13 14 14 14 14 13 14 14 16 16 16 16 16 17 17 18 18 17 17 18 18 17 17 16 15 14
12 14 7 3 6 12 14 13 12 12 11 12 15 16 14 12 13 10 11 13 14 14 14 14 14 14 14 14 13 13 14 15 16 16 15 16 16 16 17 17 16 16 17 17 17 16 15 14 13
7 8 4 2 10 13 13 11 11 12 12 12 13 12 13 12 12 13 12 13 15 14 14 14 14 13 14 13 12 12 14 15 15 15 15 15 15 16 16 16 16 16 16 16 16 15 14 13 12
9 5 1 5 10 13 12 11 11 12 14 15 16 15 14 14 15 14 12 13 14 14 14 15 14 13 13 13 12 11 13 15 15 15 15 15 15 16 15 15 15 15 15 15 14 14 13 12 10
7 3 2 7 12 12 11 11 13 13 13 13 14 16 12 13 12 12 12 12 14 15 14 14 14 14 13 13 12 13 14 14 14 15 14 14 14 15 15 14 14 14 14 14 13 13 12 11 10
9 3 4 6 10 11 12 12 12 13 12 11 12 13 11 12 11 12 12 12 13 14 14 12 13 13 13 13 13 13 14 14 14 14 14 14 14 14 13 13 13 13 14 13 13 12 11 10 8
8 4 6 7 10 12 11 12 12 12 10 8 9 10 12 13 12 12 12 12 11 11 11 11 13 13 12 12 13 13 13 13 13 13 13 14 14 14 13 13 13 13 12 12 11 11 10 8 8
7 3 5 8 10 9 10 10 10 10 10 12 13 15 17 16 14 12 12 11 10 9 8 9 10 11 13 13 14 13 13 12 12 11 12 11 10 11 12 13 14 13 13 12 11 10 10 9 8
1 2 5 8 9 8 8 8 7 9 10 13 16 17 18 15 13 12 12 11 10 9 7 6 7 9 10 11 12 10 10 11 9 9 10 8 8 9 11 14 14 14 13 12 11 10 10 9 8
3 4 5 7 9 7 7 7 7 8 9 12 15 16 16 14 13 12 12 10 10 10 7 7 6 6 7 7 8 7 7 9 8 9 9 7 7 8 10 9 11 11 12 10 10 9 8 8 6
2 3 3 5 6 6 5 6 8 10 11 13 16 16 14 13 12 12 12 11 10 10 8 7 7 6 5 5 5 6 5 6 6 8 8 7 4 4 6 5 8 8 8 7 7 5 6 5 4
3 2 2 2 3 5 5 6 8 10 12 14 16 16 14 12 11 11 11 11 11 10 9 8 8 6 5 3 2 5 5 5 7 8 7 7 5 5 5 4 5 6 7 6 4 4 4 3 3
4 4 3 2 2 4 4 5 5 10 12 13 14 14 14 13 12 12 12 11 11 10 9 8 8 7 5 3 1 2 5 5 6 6 7 6 5 5 5 5 4 4 5 6 5 4 4 3 3
8 8 7 5 6 4 3 4 4 9 12 11 13 13 13 12 12 12 12 12 11 10 9 9 9 8 6 5 4 4 4 6 5 6 8 7 6 6 4 4 4 3 5 5 3 3 3 3 4
12 11 8 6 7 5 5 5 8 12 12 12 12 13 13 11 12 12 13 11 11 10 9 8 8 9 7 5 4 3 3 5 4 6 7 8 7 7 4 4 4 4 4 3 3 3 3 3 2
13 11 8 7 8 6 6 6 12 14 13 13 13 13 14 13 12 12 13 12 11 10 10 7 6 9 8 6 4 3 3 3 3 5 6 7 8 8 5 3 3 5 3 3 4 4 3 2 3
11 8 7 7 7 6 6 5 12 13 15 14 14 14 14 14 13 13 13 13 12 11 10 9 7 7 7 6 4 2 3 4 3 3 5 7 7 8 6 4 4 4 3 3 2 2 2 2 3
14 12 9 10 8 7 6 6 9 10 11 13 14 14 14 15 15 14 13 14 13 12 11 9 8 8 6 5 5 4 4 4 4 4 6 7 7 7 5 3 4 4 3 4 4 3 3 3 3
16 13 12 11 8 8 7 7 8 10 11 12 14 14 15 15 16 15 14 14 14 13 11 10 9 9 8 5 4 4 4 4 4 3 5 6 6 6 6 5 5 5 3 3 3 3 2 3 3
15 13 12 11 10 9 9 9 7 7 7 10 12 14 15 16 17 16 15 14 15 14 13 12 10 10 9 7 6 5 4 3 4 4 5 5 6 6 4 5 4 4 5 5 5 4 4 3 3
13 12 13 13 11 9 9 8 7 8 9 11 12 12 14 15 16 16 16 15 15 15 14 11 11 10 9 7 7 7 6 5 5 4 5 5 5 6 6 5 5 4 4 5 5 5 4 3 3
14 12 12 13 13 13 11 9 8 7 9 11 12 12 14 15 17 18 18 16 15 15 15 12 11 10 9 7 6 6 5 4 4 5 5 5 5 5 5 5 4 4 4 4 4 4 4 3 3
13 13 14 14 13 13 12 11 8 6 8 9 11 12 12 13 15 16 16 14 13 14 14 14 12 10 10 8 7 6 5 4 4 5 6 6 5 5 6 6 4 4 4 4 4 4 4 3 3
13 12 10 11 11 11 10 10 6 4 6 7 7 8 10 11 12 13 14 15 14 14 14 14 13 12 11 10 8 7 6 5 5 5 6 6 5 5 6 6 5 5 4 4 4 4 4 4 4
13 14 12 13 11 9 7 7 4 1 1 3 3 4 6 8 10 12 13 14 14 15 14 14 14 13 12 11 9 8 7 6 5 5 5 5 4 5 6 6 6 6 5 5 4 4 5 5 5
15 15 15 15 15 13 9 6 3 2 2 3 3 5 4 4 6 8 10 11 12 12 13 14 14 13 13 12 10 8 8 7 6 6 6 4 4 4 6 6 6 6 6 5 5 4 4 4 5
16 14 10 13 12 14 12 9 5 6 5 5 3 3 4 4 5 7 7 8 10 11 10 12 13 13 12 12 11 10 9 8 7 5 5 5 4 3 4 5 6 6 5 6 5 5 5 5 5
14 14 12 11 12 13 11 6 2 4 6 5 4 3 2 2 3 4 5 7 10 11 12 12 13 12 12 11 10 8 9 8 7 5 5 5 4 4 4 4 5 6 6 6 5 6 5 6 5
14 14 14 12 11 12 13 6 3 4 3 3 3 4 2 2 3 4 5 4 5 7 10 10 11 12 11 10 9 8 8 8 8 7 5 5 5 5 5 5 6 6 6 5 6 7 6 6 6
Wind_Direction
187 203 208 229 249 182 59 58 59 60 60 58 59 66 62 53 62 89 97 91 95 95 94 92 89 93 94 92 94 96 101 107 113 114 114 115 115 117 119 119 120 123 123 124 124 122 121 120 119
204 213 218 243 268 62 63 62 63 65 71 73 67 70 70 64 75 92 98 100 101 99 97 95 95 96 96 96 98 100 103 107 111 113 114 117 119 120 121 122 122 124 124 125 125 124 123 122 122
233 239 246 242 51 59 63 65 73 77 74 78 75 65 61 76 83 98 109 112 105 101 98 100 101 100 99 101 102 103 105 109 112 114 115 117 119 121 123 124 124 125 125 125 126 127 126 125 124
240 240 242 24 56 63 68 73 77 78 74 71 77 76 70 78 96 107 116 113 108 105 104 105 102 102 103 102 103 106 110 113 116 117 119 121 122 123 125 127 126 127 127 127 128 129 129 128 129
241 261 239 64 67 70 71 75 80 77 75 76 81 88 84 87 102 114 116 112 112 110 110 111 107 106 107 105 107 111 117 118 119 122 124 125 126 128 128 129 129 131 132 133 132 132 134 135 138
254 242 5 59 73 74 74 74 78 81 84 92 98 99 95 105 111 117 116 114 113 111 111 117 115 114 115 114 113 113 118 120 124 126 128 128 130 134 134 133 133 133 136 137 137 137 139 141 146
263 305 48 65 79 76 71 71 71 84 82 89 101 103 111 117 117 118 115 109 108 112 116 123 124 122 123 124 122 118 119 122 128 132 132 134 136 139 140 140 139 138 139 140 141 144 145 145 153
281 336 19 61 74 79 78 74 71 78 80 89 103 110 126 129 127 122 115 107 105 111 117 126 132 134 137 133 131 130 131 131 130 131 137 141 144 146 147 147 145 144 146 147 148 150 154 160 169
276 360 23 53 68 83 86 85 89 98 96 76 75 105 125 132 132 128 120 113 111 109 117 127 128 141 145 140 139 143 141 141 140 139 142 147 155 155 157 149 150 152 155 157 158 162 168 177 188
245 61 48 65 73 81 90 95 105 106 99 94 95 109 125 136 138 135 130 129 127 125 126 119 127 139 143 136 140 152 150 150 158 153 157 163 159 158 152 150 154 156 160 163 168 175 184 191 194
357 48 49 66 79 85 90 99 98 100 107 117 123 131 137 143 145 144 138 136 132 132 134 129 124 123 128 128 146 154 149 153 158 154 159 153 150 149 144 155 157 163 167 174 172 185 197 197 191
335 38 40 66 79 90 92 91 85 85 99 118 128 136 141 150 151 146 140 137 136 137 137 134 118 109 101 120 135 144 143 151 147 154 164 153 153 144 144 152 160 168 175 173 173 190 201 186 181
311 338 34 77 107 97 103 99 105 103 110 120 130 140 146 150 148 141 136 137 139 137 135 124 112 103 98 90 139 140 138 146 144 153 165 160 155 148 143 154 163 177 169 167 187 187 186 172 196
289 293 267 234 173 144 124 105 109 117 124 131 140 147 153 154 153 144 142 143 139 137 137 132 128 129 130 136 172 137 142 138 138 151 158 164 157 141 149 159 162 176 165 176 184 175 173 182 198
270 261 244 234 227 169 139 112 131 137 140 148 151 153 154 155 154 150 149 150 144 141 139 140 146 144 151 163 179 160 156 144 144 148 151 159 160 147 153 153 158 173 172 164 175 181 175 194 202
267 258 247 240 238 189 199 163 171 164 159 164 164 157 156 157 158 154 152 151 146 146 143 157 160 150 156 170 179 174 155 140 141 148 150 160 162 155 162 159 166 173 172 165 178 189 191 200 211
258 254 252 226 220 217 219 176 174 170 167 174 168 164 163 164 164 156 157 154 148 146 148 158 157 149 161 171 176 178 144 134 147 149 152 163 170 166 172 170 164 174 179 185 196 181 182 196 212
271 274 273 255 224 226 231 192 174 178 176 173 170 171 170 172 171 163 162 155 151 150 153 158 159 150 161 167 169 176 158 159 164 153 153 161 176 177 179 173 174 184 179 186 206 166 176 200 223
270 274 277 272 252 245 245 230 193 189 187 175 173 173 175 175 170 165 166 162 159 157 159 165 168 159 167 174 173 177 178 179 175 172 164 167 184 182 181 174 169 182 187 187 187 179 204 206 213
264 269 271 272 265 255 251 253 219 195 198 184 179 176 177 178 172 168 171 171 166 162 164 168 172 169 177 176 175 180 175 183 179 173 156 171 185 181 189 178 187 186 187 186 191 190 207 222 207
260 265 273 281 280 269 260 253 246 219 201 193 187 180 177 181 174 171 175 175 172 169 172 177 173 171 182 176 178 180 170 188 175 173 170 183 184 184 193 176 202 185 186 182 193 195 200 219 227
258 261 267 278 274 273 266 264 241 224 201 207 195 191 179 176 170 173 178 178 177 174 175 171 168 169 175 178 182 186 184 189 181 178 175 181 189 190 187 184 195 198 207 176 195 190 205 213 226
259 267 272 271 271 272 267 272 249 216 204 203 196 197 181 175 174 176 181 180 179 175 173 169 163 167 170 182 188 194 197 189 176 174 169 182 195 198 192 185 189 201 209 194 202 180 200 211 221
261 266 267 263 261 258 256 259 257 236 201 206 198 188 177 178 176 175 177 173 176 175 171 168 166 170 172 182 185 188 198 188 178 175 173 189 194 201 198 190 191 203 209 203 199 197 205 219 231
243 251 258 254 247 254 262 255 241 224 207 202 190 181 172 173 173 170 173 172 175 175 172 169 167 173 177 183 189 186 194 195 190 187 190 194 194 198 196 196 188 201 202 205 200 201 215 213 224
242 241 245 259 262 262 249 250 258 165 89 103 131 133 147 166 175 175 177 175 176 178 174 170 170 175 180 185 190 189 192 199 201 205 204 200 201 193 185 187 188 194 199 210 202 210 211 210 219
244 245 252 260 265 268 254 240 235 191 138 103 125 127 140 163 164 168 172 171 174 181 177 172 169 176 182 187 186 189 193 200 200 199 208 209 207 199 177 187 193 198 204 212 205 215 216 207 213
240 250 257 253 263 265 251 239 225 193 179 161 157 147 146 159 180 169 167 174 173 183 183 177 170 175 181 185 189 193 195 199 200 205 197 208 209 205 175 195 202 203 207 212 213 219 216 212 215
233 241 255 266 265 264 265 260 211 160 163 175 165 154 155 191 158 149 161 167 174 177 183 184 172 173 183 187 188 191 187 195 197 203 205 203 205 202 195 208 219 212 208 211 214 222 213 216 218
245 242 242 251 260 270 272 251 161 139 163 154 154 137 133 154 121 132 130 138 161 174 174 173 173 176 181 184 185 190 187 187 193 201 204 203 204 203 205 214 224 222 214 211 219 229 222 217 216
Height
1467 1467 1468 1471 1470 1464 1461 1455 1452 1455 1456 1459 1459 1461 1466 1470 1475 1488 1489 1488 1488 1486 1486 1485 1485 1486 1486 1487 1488 1489 1490 1491 1493 1496 1498 1500 1503 1506 1508 1511 1514 1517 1520 1522 1525 1528 1530 1533 1535
1466 1467 1471 1469 1465 1468 1465 1455 1457 1457 1459 1460 1462 1465 1470 1476 1480 1486 1488 1490 1489 1488 1488 1488 1488 1488 1489 1490 1490 1491 1493 1494 1496 1498 1501 1503 1505 1508 1511 1514 1516 1519 1522 1525 1528 1530 1532 1535 1537
1467 1469 1469 1461 1458 1463 1464 1455 1456 1457 1459 1461 1465 1470 1475 1481 1484 1487 1490 1491 1491 1490 1490 1490 1490 1491 1491 1492 1493 1494 1495 1497 1499 1501 1503 1505 1507 1510 1513 1516 1518 1521 1524 1527 1529 1532 1534 1536 1538
1468 1468 1465 1458 1460 1454 1454 1454 1454 1457 1460 1462 1466 1474 1481 1484 1487 1489 1491 1492 1492 1492 1492 1492 1493 1493 1494 1494 1495 1496 1497 1499 1502 1504 1506 1508 1510 1513 1515 1518 1521 1523 1526 1528 1531 1533 1535 1537 1539
1469 1465 1461 1460 1458 1451 1450 1452 1454 1458 1461 1466 1471 1478 1484 1488 1489 1491 1492 1493 1494 1494 1494 1494 1495 1495 1496 1497 1497 1497 1499 1501 1504 1506 1508 1511 1513 1515 1518 1520 1523 1525 1527 1530 1532 1535 1537 1539 1541
1466 1459 1465 1464 1456 1452 1451 1453 1455 1460 1464 1468 1473 1479 1487 1490 1491 1493 1494 1495 1496 1496 1496 1497 1497 1498 1498 1499 1499 1498 1501 1504 1507 1509 1511 1513 1515 1517 1520 1522 1525 1527 1529 1532 1534 1536 1538 1540 1542
1462 1456 1461 1458 1457 1455 1453 1454 1457 1460 1464 1468 1472 1479 1487 1491 1493 1494 1496 1497 1498 1499 1499 1499 1499 1500 1501 1502 1503 1503 1505 1507 1509 1511 1513 1515 1517 1519 1522 1524 1526 1528 1530 1533 1535 1537 1539 1541 1543
1456 1454 1457 1455 1456 1457 1454 1457 1460 1463 1467 1470 1472 1477 1486 1491 1494 1495 1497 1499 1500 1501 1501 1502 1502 1503 1504 1505 1506 1507 1508 1510 1512 1514 1515 1518 1519 1521 1523 1525 1527 1529 1532 1534 1536 1539 1540 1543 1544
1454 1458 1463 1455 1455 1455 1455 1458 1462 1465 1468 1470 1473 1478 1485 1491 1494 1496 1498 1500 1502 1503 1504 1505 1505 1505 1507 1508 1509 1510 1511 1513 1514 1516 1518 1519 1521 1523 1525 1527 1529 1531 1533 1535 1537 1540 1542 1544 1545
1450 1459 1455 1448 1449 1452 1454 1458 1460 1463 1468 1473 1478 1483 1487 1491 1494 1496 1498 1500 1502 1504 1505 1506 1507 1508 1510 1511 1511 1512 1514 1515 1516 1518 1520 1521 1523 1525 1527 1528 1530 1532 1534 1537 1539 1541 1543 1544 1546
1447 1451 1448 1447 1449 1452 1454 1456 1458 1461 1467 1473 1479 1484 1488 1491 1493 1496 1498 1500 1503 1505 1506 1507 1509 1510 1512 1512 1513 1515 1516 1517 1519 1520 1521 1523 1524 1526 1528 1530 1532 1533 1536 1537 1539 1541 1543 1545 1547
1448 1448 1447 1448 1450 1452 1454 1455 1458 1462 1467 1473 1478 1483 1487 1490 1493 1495 1498 1501 1503 1505 1507 1508 1509 1511 1512 1514 1515 1517 1518 1519 1521 1521 1523 1524 1525 1527 1529 1530 1532 1534 1536 1538 1540 1542 1544 1546 1547
1448 1448 1448 1448 1450 1452 1454 1456 1459 1464 1469 1474 1478 1483 1487 1490 1493 1495 1498 1501 1503 1505 1507 1508 1509 1511 1512 1514 1516 1518 1519 1521 1522 1523 1524 1526 1527 1528 1530 1532 1534 1536 1538 1539 1541 1543 1544 1546 1547
1449 1448 1448 1448 1449 1451 1453 1457 1461 1465 1470 1474 1478 1482 1485 1489 1492 1495 1498 1501 1503 1505 1507 1508 1509 1511 1512 1514 1516 1518 1520 1521 1522 1523 1525 1526 1528 1529 1531 1533 1534 1536 1538 1540 1541 1543 1545 1546 1547
1448 1448 1447 1447 1447 1448 1452 1459 1462 1465 1470 1473 1477 1481 1484 1488 1491 1494 1497 1500 1502 1504 1506 1508 1509 1511 1512 1514 1516 1519 1520 1521 1523 1524 1525 1526 1528 1530 1531 1533 1535 1537 1539 1540 1542 1543 1545 1546 1547
1447 1449 1455 1448 1444 1446 1454 1467 1461 1464 1467 1472 1475 1479 1483 1487 1490 1493 1496 1499 1501 1504 1506 1508 1510 1511 1512 1514 1516 1519 1520 1522 1523 1524 1525 1526 1528 1529 1531 1533 1534 1536 1538 1540 1541 1543 1544 1545 1546
1453 1458 1458 1450 1443 1442 1447 1458 1456 1459 1463 1468 1472 1476 1480 1485 1488 1492 1495 1498 1500 1502 1505 1507 1510 1511 1512 1514 1516 1518 1520 1521 1523 1524 1525 1526 1528 1529 1531 1532 1534 1536 1537 1539 1540 1542 1543 1544 1545
1461 1458 1456 1452 1442 1440 1445 1449 1450 1453 1457 1462 1467 1473 1477 1482 1486 1490 1493 1496 1499 1501 1503 1506 1508 1510 1512 1514 1515 1517 1519 1521 1522 1524 1525 1526 1527 1529 1530 1532 1533 1535 1536 1538 1539 1541 1542 1543 1544
1450 1453 1455 1449 1439 1441 1445 1446 1446 1448 1451 1456 1463 1469 1473 1478 1483 1487 1491 1495 1497 1500 1502 1504 1506 1508 1510 1512 1514 1516 1518 1520 1521 1523 1524 1525 1527 1529 1530 1531 1532 1534 1535 1536 1538 1539 1540 1542 1542
1447 1452 1452 1444 1436 1438 1442 1444 1440 1443 1447 1451 1457 1463 1469 1475 1480 1484 1489 1492 1495 1497 1499 1502 1504 1506 1508 1511 1513 1515 1517 1519 1521 1522 1523 1524 1526 1528 1530 1530 1531 1532 1534 1535 1536 1537 1539 1540 1541
1446 1448 1448 1447 1440 1436 1442 1449 1444 1441 1444 1449 1453 1458 1463 1469 1475 1480 1485 1489 1492 1494 1497 1499 1501 1504 1506 1509 1511 1514 1516 1518 1520 1521 1522 1523 1525 1527 1528 1529 1530 1531 1532 1533 1534 1535 1537 1538 1539
1449 1440 1441 1443 1449 1451 1447 1464 1449 1443 1444 1447 1449 1454 1458 1464 1470 1476 1481 1485 1488 1491 1494 1497 1499 1502 1504 1507 1509 1512 1514 1516 1518 1519 1520 1522 1523 1525 1526 1528 1528 1529 1530 1531 1532 1533 1535 1536 1537
1441 1436 1438 1442 1447 1453 1449 1461 1454 1440 1446 1445 1446 1450 1454 1460 1465 1471 1476 1480 1485 1488 1491 1494 1497 1499 1502 1505 1507 1510 1512 1514 1516 1518 1519 1520 1521 1523 1524 1525 1526 1527 1528 1529 1530 1532 1533 1534 1535
1435 1437 1439 1441 1447 1465 1455 1461 1461 1444 1442 1443 1442 1445 1450 1456 1461 1467 1472 1477 1481 1485 1489 1491 1494 1497 1499 1502 1505 1507 1510 1512 1514 1516 1517 1518 1520 1521 1522 1523 1524 1525 1526 1527 1528 1530 1530 1531 1532
1436 1449 1464 1467 1467 1466 1449 1453 1452 1437 1435 1437 1439 1442 1447 1452 1458 1464 1468 1473 1477 1481 1485 1488 1491 1493 1496 1499 1502 1505 1507 1509 1511 1513 1514 1516 1517 1518 1520 1521 1522 1523 1524 1525 1526 1527 1528 1529 1530
1436 1443 1465 1477 1473 1462 1451 1457 1447 1436 1436 1436 1439 1443 1446 1451 1456 1460 1464 1468 1473 1477 1481 1484 1487 1490 1493 1496 1499 1502 1504 1507 1509 1510 1512 1513 1515 1516 1517 1519 1520 1521 1522 1523 1524 1525 1526 1527 1527
1438 1439 1434 1449 1454 1464 1458 1449 1443 1438 1437 1439 1441 1443 1447 1451 1454 1459 1463 1466 1470 1474 1478 1481 1484 1487 1490 1493 1496 1498 1501 1504 1506 1508 1509 1511 1512 1514 1515 1516 1517 1518 1520 1521 1522 1523 1523 1524 1525
1427 1431 1439 1450 1465 1470 1458 1453 1451 1445 1443 1441 1444 1446 1448 1451 1454 1457 1461 1464 1467 1470 1473 1478 1481 1484 1487 1490 1493 1495 1498 1500 1503 1505 1506 1508 1510 1512 1513 1514 1515 1516 1517 1518 1519 1520 1521 1522 1522
1429 1434 1438 1441 1444 1460 1466 1459 1435 1438 1439 1442 1444 1446 1449 1452 1453 1456 1459 1462 1465 1469 1472 1476 1478 1482 1485 1487 1490 1493 1495 1497 1499 1501 1503 1505 1507 1509 1510 1511 1512 1513 1513 1514 1515 1516 1517 1518 1519
1422 1428 1436 1452 1452 1447 1452 1454 1431 1435 1437 1440 1443 1447 1450 1452 1454 1456 1458 1461 1464 1466 1469 1471 1475 1478 1481 1484 1486 1489 1492 1494 1496 1498 1500 1502 1504 1505 1506 1507 1508 1509 1510 1511 1512 1513 1514 1515 1515